Data supplied by UK-AIR on 14/3/2017
All Data GMT hour ending 
Status: R =Ratified P=Provisional,P*=As supplied
,,Doncaster A630 Cleveland Street,,,,,,,,,,,,,,,,,,,,,,,
Date,time,"Nitric oxide",status,unit,"Nitrogen dioxide",status,unit,"Nitrogen oxides as nitrogen dioxide",status,unit
 
01-01-2016,01:00,1.94080,R,ugm-3,12.97886,R,ugm-3,15.95471,R,ugm-3
01-01-2016,02:00,4.40047,R,ugm-3,18.68003,R,ugm-3,25.91756,R,ugm-3
01-01-2016,03:00,2.58066,R,ugm-3,15.27944,R,ugm-3,19.23640,R,ugm-3
01-01-2016,04:00,5.69049,R,ugm-3,19.29665,R,ugm-3,28.02195,R,ugm-3
01-01-2016,05:00,2.44814,R,ugm-3,11.64569,R,ugm-3,15.39945,R,ugm-3
01-01-2016,06:00,5.16164,R,ugm-3,26.41832,R,ugm-3,34.33272,R,ugm-3
01-01-2016,07:00,4.73101,R,ugm-3,22.93900,R,ugm-3,30.19312,R,ugm-3
01-01-2016,08:00,1.29002,R,ugm-3,18.57133,R,ugm-3,20.54933,R,ugm-3
01-01-2016,09:00,5.22743,R,ugm-3,18.59333,R,ugm-3,26.60861,R,ugm-3
01-01-2016,10:00,11.71184,R,ugm-3,27.88712,R,ugm-3,45.84502,R,ugm-3
01-01-2016,11:00,10.02455,R,ugm-3,22.24429,R,ugm-3,37.61505,R,ugm-3
01-01-2016,12:00,12.24100,R,ugm-3,26.16683,R,ugm-3,44.93610,R,ugm-3
01-01-2016,13:00,11.48046,R,ugm-3,19.96124,R,ugm-3,37.56437,R,ugm-3
01-01-2016,14:00,8.60232,R,ugm-3,20.23425,R,ugm-3,33.42428,R,ugm-3
01-01-2016,15:00,7.41115,R,ugm-3,15.44678,R,ugm-3,26.81038,R,ugm-3
01-01-2016,16:00,5.16133,R,ugm-3,13.54433,R,ugm-3,21.45825,R,ugm-3
01-01-2016,17:00,6.08745,R,ugm-3,13.48791,R,ugm-3,22.82186,R,ugm-3
01-01-2016,18:00,4.49964,R,ugm-3,10.92372,R,ugm-3,17.82307,R,ugm-3
01-01-2016,19:00,4.00321,R,ugm-3,10.17020,R,ugm-3,16.30837,R,ugm-3
01-01-2016,20:00,4.06963,R,ugm-3,9.26033,R,ugm-3,15.50033,R,ugm-3
01-01-2016,21:00,3.27541,R,ugm-3,8.61055,R,ugm-3,13.63278,R,ugm-3
01-01-2016,22:00,2.67982,R,ugm-3,7.14988,R,ugm-3,11.25889,R,ugm-3
01-01-2016,23:00,2.51456,R,ugm-3,7.20152,R,ugm-3,11.05712,R,ugm-3
01-01-2016,24:00,1.91897,R,ugm-3,4.58092,R,ugm-3,7.52330,R,ugm-3
02-01-2016,01:00,1.32463,R,ugm-3,4.76786,R,ugm-3,6.79894,R,ugm-3
02-01-2016,02:00,1.01530,R,ugm-3,4.56960,R,ugm-3,6.12638,R,ugm-3
02-01-2016,03:00,0.66232,R,ugm-3,4.38680,R,ugm-3,5.40233,R,ugm-3
02-01-2016,04:00,0.76148,R,ugm-3,4.08367,R,ugm-3,5.25125,R,ugm-3
02-01-2016,05:00,1.68884,R,ugm-3,5.33731,R,ugm-3,7.92683,R,ugm-3
02-01-2016,06:00,2.25231,R,ugm-3,5.93783,R,ugm-3,9.39133,R,ugm-3
02-01-2016,07:00,2.88095,R,ugm-3,6.94285,R,ugm-3,11.36025,R,ugm-3
02-01-2016,08:00,6.98738,R,ugm-3,12.05688,R,ugm-3,22.77070,R,ugm-3
02-01-2016,09:00,10.92822,R,ugm-3,16.31506,R,ugm-3,33.07143,R,ugm-3
02-01-2016,10:00,12.88211,R,ugm-3,18.26724,R,ugm-3,38.01954,R,ugm-3
02-01-2016,11:00,14.73685,R,ugm-3,19.20963,R,ugm-3,41.80582,R,ugm-3
02-01-2016,12:00,20.73075,R,ugm-3,22.08603,R,ugm-3,53.87273,R,ugm-3
02-01-2016,13:00,20.00202,R,ugm-3,22.95143,R,ugm-3,53.62076,R,ugm-3
02-01-2016,14:00,19.10770,R,ugm-3,27.55387,R,ugm-3,56.85193,R,ugm-3
02-01-2016,15:00,13.84254,R,ugm-3,30.02243,R,ugm-3,51.24735,R,ugm-3
02-01-2016,16:00,13.31212,R,ugm-3,28.66455,R,ugm-3,49.07618,R,ugm-3
02-01-2016,17:00,13.01433,R,ugm-3,27.45537,R,ugm-3,47.41040,R,ugm-3
02-01-2016,18:00,10.06727,R,ugm-3,23.49172,R,ugm-3,38.92798,R,ugm-3
02-01-2016,19:00,4.93432,R,ugm-3,22.98060,R,ugm-3,30.54645,R,ugm-3
02-01-2016,20:00,2.51705,R,ugm-3,18.91176,R,ugm-3,22.77118,R,ugm-3
02-01-2016,21:00,4.66927,R,ugm-3,22.07455,R,ugm-3,29.23400,R,ugm-3
02-01-2016,22:00,19.70391,R,ugm-3,35.98034,R,ugm-3,66.19258,R,ugm-3
02-01-2016,23:00,23.31360,R,ugm-3,41.20003,R,ugm-3,76.94705,R,ugm-3
02-01-2016,24:00,17.58444,R,ugm-3,40.89642,R,ugm-3,67.85885,R,ugm-3
03-01-2016,01:00,8.35317,R,ugm-3,32.36333,R,ugm-3,45.17134,R,ugm-3
03-01-2016,02:00,12.69533,R,ugm-3,31.50334,R,ugm-3,52.30751,R,ugm-3
03-01-2016,03:00,6.06593,R,ugm-3,27.15272,R,ugm-3,36.45368,R,ugm-3
03-01-2016,04:00,7.06034,R,ugm-3,26.99111,R,ugm-3,37.81682,R,ugm-3
03-01-2016,05:00,6.33098,R,ugm-3,22.40398,R,ugm-3,32.11135,R,ugm-3
03-01-2016,06:00,4.44132,R,ugm-3,22.67603,R,ugm-3,29.48597,R,ugm-3
03-01-2016,07:00,2.45313,R,ugm-3,7.95265,R,ugm-3,11.71406,R,ugm-3
03-01-2016,08:00,2.51923,R,ugm-3,16.98922,R,ugm-3,20.85199,R,ugm-3
03-01-2016,09:00,4.30911,R,ugm-3,15.25458,R,ugm-3,21.86179,R,ugm-3
03-01-2016,10:00,6.86109,R,ugm-3,20.83382,R,ugm-3,31.35400,R,ugm-3
03-01-2016,11:00,7.72328,R,ugm-3,20.52208,R,ugm-3,32.36428,R,ugm-3
03-01-2016,12:00,9.94410,R,ugm-3,18.98443,R,ugm-3,34.23184,R,ugm-3
03-01-2016,13:00,7.85643,R,ugm-3,16.73294,R,ugm-3,28.77930,R,ugm-3
03-01-2016,14:00,8.38622,R,ugm-3,20.97008,R,ugm-3,33.82878,R,ugm-3
03-01-2016,15:00,8.05444,R,ugm-3,13.40041,R,ugm-3,25.75038,R,ugm-3
03-01-2016,16:00,6.59603,R,ugm-3,12.60672,R,ugm-3,22.72050,R,ugm-3
03-01-2016,17:00,5.60194,R,ugm-3,13.82833,R,ugm-3,22.41785,R,ugm-3
03-01-2016,18:00,4.73974,R,ugm-3,17.52328,R,ugm-3,24.79078,R,ugm-3
03-01-2016,19:00,6.99392,R,ugm-3,26.84098,R,ugm-3,37.56485,R,ugm-3
03-01-2016,20:00,5.99951,R,ugm-3,33.66669,R,ugm-3,42.86582,R,ugm-3
03-01-2016,21:00,5.00510,R,ugm-3,28.98155,R,ugm-3,36.65593,R,ugm-3
03-01-2016,22:00,11.03767,R,ugm-3,30.23328,R,ugm-3,47.15747,R,ugm-3
03-01-2016,23:00,11.76703,R,ugm-3,37.44627,R,ugm-3,55.48880,R,ugm-3
03-01-2016,24:00,10.47420,R,ugm-3,42.35662,R,ugm-3,58.41683,R,ugm-3
04-01-2016,01:00,5.39707,R,ugm-3,25.25010,R,ugm-3,33.52549,R,ugm-3
04-01-2016,02:00,3.14070,R,ugm-3,23.99741,R,ugm-3,28.81309,R,ugm-3
04-01-2016,03:00,2.78709,R,ugm-3,22.33465,R,ugm-3,26.60813,R,ugm-3
04-01-2016,04:00,4.67800,R,ugm-3,29.93732,R,ugm-3,37.11015,R,ugm-3
04-01-2016,05:00,12.80665,R,ugm-3,32.26722,R,ugm-3,51.90382,R,ugm-3
04-01-2016,06:00,16.85477,R,ugm-3,33.93636,R,ugm-3,59.77997,R,ugm-3
04-01-2016,07:00,26.94043,R,ugm-3,40.48571,R,ugm-3,81.79380,R,ugm-3
04-01-2016,08:00,38.22133,R,ugm-3,44.54595,R,ugm-3,103.15117,R,ugm-3
04-01-2016,09:00,44.89002,R,ugm-3,49.87178,R,ugm-3,118.70218,R,ugm-3
04-01-2016,10:00,41.27378,R,ugm-3,47.89330,R,ugm-3,111.17888,R,ugm-3
04-01-2016,11:00,46.28356,R,ugm-3,48.18926,R,ugm-3,119.15640,R,ugm-3
04-01-2016,12:00,36.76167,R,ugm-3,42.18975,R,ugm-3,98.55686,R,ugm-3
04-01-2016,13:00,38.25438,R,ugm-3,54.44170,R,ugm-3,113.09760,R,ugm-3
04-01-2016,14:00,32.61440,R,ugm-3,48.14432,R,ugm-3,98.15237,R,ugm-3
04-01-2016,15:00,37.02704,R,ugm-3,54.96047,R,ugm-3,111.73447,R,ugm-3
04-01-2016,16:00,33.07871,R,ugm-3,53.28894,R,ugm-3,104.00892,R,ugm-3
04-01-2016,17:00,30.72287,R,ugm-3,55.99322,R,ugm-3,103.10096,R,ugm-3
04-01-2016,18:00,35.66686,R,ugm-3,57.39986,R,ugm-3,112.08828,R,ugm-3
04-01-2016,19:00,28.46713,R,ugm-3,51.27221,R,ugm-3,94.92120,R,ugm-3
04-01-2016,20:00,16.82140,R,ugm-3,49.13452,R,ugm-3,74.92697,R,ugm-3
04-01-2016,21:00,16.05805,R,ugm-3,42.88303,R,ugm-3,67.50503,R,ugm-3
04-01-2016,22:00,13.03896,R,ugm-3,34.63777,R,ugm-3,54.63056,R,ugm-3
04-01-2016,23:00,6.40333,R,ugm-3,28.35233,R,ugm-3,38.17063,R,ugm-3
04-01-2016,24:00,3.88160,R,ugm-3,22.47379,R,ugm-3,28.42549,R,ugm-3
05-01-2016,01:00,4.41544,R,ugm-3,20.90936,R,ugm-3,27.67961,R,ugm-3
05-01-2016,02:00,1.72211,R,ugm-3,21.93319,R,ugm-3,24.57371,R,ugm-3
05-01-2016,03:00,1.78832,R,ugm-3,18.37195,R,ugm-3,21.11400,R,ugm-3
05-01-2016,04:00,1.95390,R,ugm-3,17.76426,R,ugm-3,20.76019,R,ugm-3
05-01-2016,05:00,6.29169,R,ugm-3,20.07456,R,ugm-3,29.72168,R,ugm-3
05-01-2016,06:00,10.29896,R,ugm-3,25.62654,R,ugm-3,41.41806,R,ugm-3
05-01-2016,07:00,23.37970,R,ugm-3,39.24115,R,ugm-3,75.08953,R,ugm-3
05-01-2016,08:00,45.69983,R,ugm-3,55.60020,R,ugm-3,125.67229,R,ugm-3
05-01-2016,09:00,,,,,,,,,
05-01-2016,10:00,41.13003,R,ugm-3,51.51845,R,ugm-3,114.58361,R,ugm-3
05-01-2016,11:00,37.81814,R,ugm-3,47.17898,R,ugm-3,105.16598,R,ugm-3
05-01-2016,12:00,39.10972,R,ugm-3,48.94518,R,ugm-3,108.91257,R,ugm-3
05-01-2016,13:00,29.87065,R,ugm-3,41.69346,R,ugm-3,87.49448,R,ugm-3
05-01-2016,14:00,34.70519,R,ugm-3,53.36927,R,ugm-3,106.58315,R,ugm-3
05-01-2016,15:00,47.02446,R,ugm-3,62.53110,R,ugm-3,134.63426,R,ugm-3
05-01-2016,16:00,28.47960,R,ugm-3,57.64897,R,ugm-3,101.31708,R,ugm-3
05-01-2016,17:00,40.50077,R,ugm-3,60.02716,R,ugm-3,122.12747,R,ugm-3
05-01-2016,18:00,28.74434,R,ugm-3,52.33269,R,ugm-3,96.40673,R,ugm-3
05-01-2016,19:00,17.18717,R,ugm-3,43.06520,R,ugm-3,69.41849,R,ugm-3
05-01-2016,20:00,13.57748,R,ugm-3,42.32171,R,ugm-3,63.14023,R,ugm-3
05-01-2016,21:00,46.56077,R,ugm-3,53.41899,R,ugm-3,124.81118,R,ugm-3
05-01-2016,22:00,62.92005,R,ugm-3,57.19666,R,ugm-3,153.67272,R,ugm-3
05-01-2016,23:00,43.31561,R,ugm-3,45.12926,R,ugm-3,111.54561,R,ugm-3
05-01-2016,24:00,14.80265,R,ugm-3,43.37933,R,ugm-3,66.07640,R,ugm-3
06-01-2016,01:00,5.66233,R,ugm-3,37.58318,R,ugm-3,46.26529,R,ugm-3
06-01-2016,02:00,24.68448,R,ugm-3,40.88224,R,ugm-3,78.73125,R,ugm-3
06-01-2016,03:00,6.76816,R,ugm-3,30.61100,R,ugm-3,40.98870,R,ugm-3
06-01-2016,04:00,6.46975,R,ugm-3,24.52494,R,ugm-3,34.44508,R,ugm-3
06-01-2016,05:00,14.83040,R,ugm-3,32.96050,R,ugm-3,55.70013,R,ugm-3
06-01-2016,06:00,36.89389,R,ugm-3,44.22895,R,ugm-3,100.79879,R,ugm-3
06-01-2016,07:00,16.75467,R,ugm-3,38.27964,R,ugm-3,63.96978,R,ugm-3
06-01-2016,08:00,27.30558,R,ugm-3,48.42976,R,ugm-3,90.29773,R,ugm-3
06-01-2016,09:00,75.61320,R,ugm-3,62.52584,R,ugm-3,178.46446,R,ugm-3
06-01-2016,10:00,79.19638,R,ugm-3,67.78617,R,ugm-3,189.21893,R,ugm-3
06-01-2016,11:00,70.53700,R,ugm-3,66.55548,R,ugm-3,174.71070,R,ugm-3
06-01-2016,12:00,80.25783,R,ugm-3,64.48472,R,ugm-3,187.54501,R,ugm-3
06-01-2016,13:00,63.66905,R,ugm-3,54.35947,R,ugm-3,151.98398,R,ugm-3
06-01-2016,14:00,32.51493,R,ugm-3,46.02288,R,ugm-3,95.87841,R,ugm-3
06-01-2016,15:00,48.47320,R,ugm-3,56.04916,R,ugm-3,130.37369,R,ugm-3
06-01-2016,16:00,42.10324,R,ugm-3,57.29324,R,ugm-3,121.85063,R,ugm-3
06-01-2016,17:00,45.28822,R,ugm-3,65.90427,R,ugm-3,135.34523,R,ugm-3
06-01-2016,18:00,20.86889,R,ugm-3,45.16034,R,ugm-3,77.15886,R,ugm-3
06-01-2016,19:00,15.72627,R,ugm-3,43.30569,R,ugm-3,67.41897,R,ugm-3
06-01-2016,20:00,11.01522,R,ugm-3,34.54931,R,ugm-3,51.43908,R,ugm-3
06-01-2016,21:00,9.75451,R,ugm-3,32.11996,R,ugm-3,47.07667,R,ugm-3
06-01-2016,22:00,6.30385,R,ugm-3,33.20052,R,ugm-3,42.86630,R,ugm-3
06-01-2016,23:00,6.23775,R,ugm-3,29.44628,R,ugm-3,39.01070,R,ugm-3
06-01-2016,24:00,3.51707,R,ugm-3,24.74010,R,ugm-3,30.13287,R,ugm-3
07-01-2016,01:00,2.65675,R,ugm-3,29.30396,R,ugm-3,33.37759,R,ugm-3
07-01-2016,02:00,4.56096,R,ugm-3,46.69496,R,ugm-3,53.68834,R,ugm-3
07-01-2016,03:00,4.18407,R,ugm-3,36.79554,R,ugm-3,43.21103,R,ugm-3
07-01-2016,04:00,2.59033,R,ugm-3,22.07694,R,ugm-3,26.04873,R,ugm-3
07-01-2016,05:00,2.78990,R,ugm-3,13.18908,R,ugm-3,17.46686,R,ugm-3
07-01-2016,06:00,5.21403,R,ugm-3,17.29235,R,ugm-3,25.28708,R,ugm-3
07-01-2016,07:00,7.50532,R,ugm-3,20.73580,R,ugm-3,32.24379,R,ugm-3
07-01-2016,08:00,17.63433,R,ugm-3,29.22204,R,ugm-3,56.26097,R,ugm-3
07-01-2016,09:00,18.46409,R,ugm-3,43.18329,R,ugm-3,71.49451,R,ugm-3
07-01-2016,10:00,34.43795,R,ugm-3,53.47159,R,ugm-3,106.27571,R,ugm-3
07-01-2016,11:00,51.54093,R,ugm-3,66.90451,R,ugm-3,145.93283,R,ugm-3
07-01-2016,12:00,20.78906,R,ugm-3,36.87587,R,ugm-3,68.75198,R,ugm-3
07-01-2016,13:00,10.16207,R,ugm-3,17.87996,R,ugm-3,33.46158,R,ugm-3
07-01-2016,14:00,9.23220,R,ugm-3,16.61532,R,ugm-3,30.77117,R,ugm-3
07-01-2016,15:00,11.29118,R,ugm-3,18.53595,R,ugm-3,35.84886,R,ugm-3
07-01-2016,16:00,9.23189,R,ugm-3,17.57970,R,ugm-3,31.73507,R,ugm-3
07-01-2016,17:00,10.32796,R,ugm-3,20.57085,R,ugm-3,36.40683,R,ugm-3
07-01-2016,18:00,8.03667,R,ugm-3,21.79963,R,ugm-3,34.12235,R,ugm-3
07-01-2016,19:00,8.99989,R,ugm-3,20.72911,R,ugm-3,34.52875,R,ugm-3
07-01-2016,20:00,4.88193,R,ugm-3,13.84076,R,ugm-3,21.32629,R,ugm-3
07-01-2016,21:00,4.54953,R,ugm-3,14.45181,R,ugm-3,21.42765,R,ugm-3
07-01-2016,22:00,3.22115,R,ugm-3,13.44201,R,ugm-3,18.38104,R,ugm-3
07-01-2016,23:00,4.98140,R,ugm-3,15.71932,R,ugm-3,23.35736,R,ugm-3
07-01-2016,24:00,6.07685,R,ugm-3,21.35163,R,ugm-3,30.66933,R,ugm-3
08-01-2016,01:00,3.94479,R,ugm-3,12.65501,R,ugm-3,18.70361,R,ugm-3
08-01-2016,02:00,4.52063,R,ugm-3,19.29394,R,ugm-3,26.22548,R,ugm-3
08-01-2016,03:00,1.72876,R,ugm-3,12.29164,R,ugm-3,14.94236,R,ugm-3
08-01-2016,04:00,5.11923,R,ugm-3,19.64711,R,ugm-3,27.49649,R,ugm-3
08-01-2016,05:00,4.15507,R,ugm-3,28.29113,R,ugm-3,34.66215,R,ugm-3
08-01-2016,06:00,12.49826,R,ugm-3,42.02910,R,ugm-3,61.19283,R,ugm-3
08-01-2016,07:00,23.40153,R,ugm-3,52.70515,R,ugm-3,88.58700,R,ugm-3
08-01-2016,08:00,33.04129,R,ugm-3,55.61168,R,ugm-3,106.27428,R,ugm-3
08-01-2016,09:00,60.03255,R,ugm-3,62.20454,R,ugm-3,154.25317,R,ugm-3
08-01-2016,10:00,30.94707,R,ugm-3,50.58897,R,ugm-3,98.04049,R,ugm-3
08-01-2016,11:00,32.04376,R,ugm-3,52.56745,R,ugm-3,101.70053,R,ugm-3
08-01-2016,12:00,20.87513,R,ugm-3,42.55169,R,ugm-3,74.55977,R,ugm-3
08-01-2016,13:00,22.10496,R,ugm-3,43.56340,R,ugm-3,77.45721,R,ugm-3
08-01-2016,14:00,21.34037,R,ugm-3,41.07620,R,ugm-3,73.79764,R,ugm-3
08-01-2016,15:00,32.80836,R,ugm-3,59.42472,R,ugm-3,109.73017,R,ugm-3
08-01-2016,16:00,37.72802,R,ugm-3,62.35228,R,ugm-3,120.20110,R,ugm-3
08-01-2016,17:00,36.23219,R,ugm-3,68.81271,R,ugm-3,124.36796,R,ugm-3
08-01-2016,18:00,21.07438,R,ugm-3,67.65851,R,ugm-3,99.97211,R,ugm-3
08-01-2016,19:00,27.72249,R,ugm-3,61.68338,R,ugm-3,104.19061,R,ugm-3
08-01-2016,20:00,11.03580,R,ugm-3,56.46991,R,ugm-3,73.39123,R,ugm-3
08-01-2016,21:00,17.51771,R,ugm-3,57.00015,R,ugm-3,83.86026,R,ugm-3
08-01-2016,22:00,19.64529,R,ugm-3,57.24447,R,ugm-3,87.36683,R,ugm-3
08-01-2016,23:00,18.18252,R,ugm-3,55.82874,R,ugm-3,83.70821,R,ugm-3
08-01-2016,24:00,10.03858,R,ugm-3,50.52729,R,ugm-3,65.91957,R,ugm-3
09-01-2016,01:00,7.40896,R,ugm-3,44.58420,R,ugm-3,55.94445,R,ugm-3
09-01-2016,02:00,5.85576,R,ugm-3,35.35639,R,ugm-3,44.40315,R,ugm-3
09-01-2016,03:00,2.59532,R,ugm-3,28.10036,R,ugm-3,32.07980,R,ugm-3
09-01-2016,04:00,6.38836,R,ugm-3,29.82018,R,ugm-3,39.61553,R,ugm-3
09-01-2016,05:00,2.69542,R,ugm-3,23.05853,R,ugm-3,27.19145,R,ugm-3
09-01-2016,06:00,8.85022,R,ugm-3,33.63370,R,ugm-3,47.20385,R,ugm-3
09-01-2016,07:00,13.07607,R,ugm-3,41.92057,R,ugm-3,61.97026,R,ugm-3
09-01-2016,08:00,28.64705,R,ugm-3,46.76445,R,ugm-3,90.68932,R,ugm-3
09-01-2016,09:00,25.65228,R,ugm-3,44.88972,R,ugm-3,84.22268,R,ugm-3
09-01-2016,10:00,19.49748,R,ugm-3,33.95787,R,ugm-3,63.85359,R,ugm-3
09-01-2016,11:00,14.30716,R,ugm-3,28.32078,R,ugm-3,50.25811,R,ugm-3
09-01-2016,12:00,15.97074,R,ugm-3,32.23662,R,ugm-3,56.72475,R,ugm-3
09-01-2016,13:00,12.34390,R,ugm-3,32.04394,R,ugm-3,50.97099,R,ugm-3
09-01-2016,14:00,22.05944,R,ugm-3,38.38053,R,ugm-3,72.20453,R,ugm-3
09-01-2016,15:00,18.83205,R,ugm-3,40.17302,R,ugm-3,69.04842,R,ugm-3
09-01-2016,16:00,16.90185,R,ugm-3,32.64207,R,ugm-3,58.55788,R,ugm-3
09-01-2016,17:00,11.71152,R,ugm-3,32.70805,R,ugm-3,50.66547,R,ugm-3
09-01-2016,18:00,10.21445,R,ugm-3,23.59786,R,ugm-3,39.25980,R,ugm-3
09-01-2016,19:00,5.72292,R,ugm-3,21.42096,R,ugm-3,30.19598,R,ugm-3
09-01-2016,20:00,3.32717,R,ugm-3,13.79008,R,ugm-3,18.89168,R,ugm-3
09-01-2016,21:00,3.22739,R,ugm-3,8.69805,R,ugm-3,13.64664,R,ugm-3
09-01-2016,22:00,1.69695,R,ugm-3,6.97106,R,ugm-3,9.57302,R,ugm-3
09-01-2016,23:00,1.39729,R,ugm-3,6.92086,R,ugm-3,9.06334,R,ugm-3
09-01-2016,24:00,0.99815,R,ugm-3,5.80205,R,ugm-3,7.33253,R,ugm-3
10-01-2016,01:00,0.79910,R,ugm-3,4.34711,R,ugm-3,5.57239,R,ugm-3
10-01-2016,02:00,1.03276,R,ugm-3,4.41405,R,ugm-3,6.04860,R,ugm-3
10-01-2016,03:00,0.79952,R,ugm-3,3.82022,R,ugm-3,5.04613,R,ugm-3
10-01-2016,04:00,0.76615,R,ugm-3,4.02390,R,ugm-3,5.19865,R,ugm-3
10-01-2016,05:00,0.84318,R,ugm-3,2.85281,R,ugm-3,4.14566,R,ugm-3
10-01-2016,06:00,1.29844,R,ugm-3,2.49390,R,ugm-3,4.48481,R,ugm-3
10-01-2016,07:00,0.96572,R,ugm-3,2.69854,R,ugm-3,4.17929,R,ugm-3
10-01-2016,08:00,1.49863,R,ugm-3,4.78699,R,ugm-3,7.08486,R,ugm-3
10-01-2016,09:00,2.53108,R,ugm-3,7.89289,R,ugm-3,11.77383,R,ugm-3
10-01-2016,10:00,5.06217,R,ugm-3,12.26821,R,ugm-3,20.03009,R,ugm-3
10-01-2016,11:00,5.62782,R,ugm-3,14.05162,R,ugm-3,22.68082,R,ugm-3
10-01-2016,12:00,5.79496,R,ugm-3,12.21514,R,ugm-3,21.10061,R,ugm-3
10-01-2016,13:00,6.12767,R,ugm-3,12.92898,R,ugm-3,22.32461,R,ugm-3
10-01-2016,14:00,8.02606,R,ugm-3,16.59237,R,ugm-3,28.89883,R,ugm-3
10-01-2016,15:00,7.56020,R,ugm-3,18.73342,R,ugm-3,30.32556,R,ugm-3
10-01-2016,16:00,5.39520,R,ugm-3,24.80608,R,ugm-3,33.07860,R,ugm-3
10-01-2016,17:00,8.45888,R,ugm-3,33.66574,R,ugm-3,46.63583,R,ugm-3
10-01-2016,18:00,8.29236,R,ugm-3,37.74367,R,ugm-3,50.45844,R,ugm-3
10-01-2016,19:00,5.69486,R,ugm-3,29.80010,R,ugm-3,38.53209,R,ugm-3
10-01-2016,20:00,4.82923,R,ugm-3,24.14483,R,ugm-3,31.54956,R,ugm-3
10-01-2016,21:00,3.66301,R,ugm-3,23.79198,R,ugm-3,29.40851,R,ugm-3
10-01-2016,22:00,3.86320,R,ugm-3,21.95550,R,ugm-3,27.87899,R,ugm-3
10-01-2016,23:00,2.93053,R,ugm-3,25.01741,R,ugm-3,29.51083,R,ugm-3
10-01-2016,24:00,3.56354,R,ugm-3,25.01502,R,ugm-3,30.47903,R,ugm-3
11-01-2016,01:00,5.51140,R,ugm-3,30.04920,R,ugm-3,38.49990,R,ugm-3
11-01-2016,02:00,2.88916,R,ugm-3,25.63515,R,ugm-3,30.06514,R,ugm-3
11-01-2016,03:00,2.53327,R,ugm-3,21.92968,R,ugm-3,25.81397,R,ugm-3
11-01-2016,04:00,4.10019,R,ugm-3,29.62845,R,ugm-3,35.91532,R,ugm-3
11-01-2016,05:00,25.36728,R,ugm-3,46.60715,R,ugm-3,85.50309,R,ugm-3
11-01-2016,06:00,89.36905,R,ugm-3,64.78833,R,ugm-3,201.81895,R,ugm-3
11-01-2016,07:00,110.53573,R,ugm-3,69.06468,R,ugm-3,238.55043,R,ugm-3
11-01-2016,08:00,182.63746,R,ugm-3,75.48972,R,ugm-3,355.52993,R,ugm-3
11-01-2016,09:00,130.53618,R,ugm-3,65.79335,R,ugm-3,265.94603,R,ugm-3
11-01-2016,10:00,75.23527,R,ugm-3,56.00326,R,ugm-3,171.36239,R,ugm-3
11-01-2016,11:00,71.90154,R,ugm-3,55.14694,R,ugm-3,165.39443,R,ugm-3
11-01-2016,12:00,91.66844,R,ugm-3,69.17034,R,ugm-3,209.72666,R,ugm-3
11-01-2016,13:00,36.83402,R,ugm-3,58.92030,R,ugm-3,115.39834,R,ugm-3
11-01-2016,14:00,46.70110,R,ugm-3,55.88182,R,ugm-3,127.48916,R,ugm-3
11-01-2016,15:00,64.10155,R,ugm-3,63.12684,R,ugm-3,161.41452,R,ugm-3
11-01-2016,16:00,33.20063,R,ugm-3,65.05225,R,ugm-3,115.95918,R,ugm-3
11-01-2016,17:00,44.63432,R,ugm-3,71.70249,R,ugm-3,140.14083,R,ugm-3
11-01-2016,18:00,57.60156,R,ugm-3,77.27648,R,ugm-3,165.59764,R,ugm-3
11-01-2016,19:00,58.86819,R,ugm-3,76.15049,R,ugm-3,166.41380,R,ugm-3
11-01-2016,20:00,48.00109,R,ugm-3,74.80457,R,ugm-3,148.40522,R,ugm-3
11-01-2016,21:00,38.50072,R,ugm-3,70.54639,R,ugm-3,129.58000,R,ugm-3
11-01-2016,22:00,35.50065,R,ugm-3,62.80076,R,ugm-3,117.23434,R,ugm-3
11-01-2016,23:00,26.40066,R,ugm-3,51.39939,R,ugm-3,91.87985,R,ugm-3
11-01-2016,24:00,16.66705,R,ugm-3,42.19358,R,ugm-3,67.74936,R,ugm-3
12-01-2016,01:00,1.11218,R,ugm-3,23.85079,R,ugm-3,25.55610,R,ugm-3
12-01-2016,02:00,5.91678,R,ugm-3,19.41379,R,ugm-3,28.48605,R,ugm-3
12-01-2016,03:00,1.33461,R,ugm-3,6.59143,R,ugm-3,8.63781,R,ugm-3
12-01-2016,04:00,2.36894,R,ugm-3,6.84532,R,ugm-3,10.47763,R,ugm-3
12-01-2016,05:00,6.97334,R,ugm-3,16.24382,R,ugm-3,26.93613,R,ugm-3
12-01-2016,06:00,11.97813,R,ugm-3,23.90290,R,ugm-3,42.26912,R,ugm-3
12-01-2016,07:00,20.11926,R,ugm-3,40.50245,R,ugm-3,71.35155,R,ugm-3
12-01-2016,08:00,31.12980,R,ugm-3,46.82469,R,ugm-3,94.55639,R,ugm-3
12-01-2016,09:00,22.72175,R,ugm-3,39.37455,R,ugm-3,74.21408,R,ugm-3
12-01-2016,10:00,20.55301,R,ugm-3,28.89979,R,ugm-3,60.41396,R,ugm-3
12-01-2016,11:00,22.78848,R,ugm-3,28.02721,R,ugm-3,62.96906,R,ugm-3
12-01-2016,12:00,20.75320,R,ugm-3,27.26364,R,ugm-3,59.08478,R,ugm-3
12-01-2016,13:00,19.85234,R,ugm-3,29.05374,R,ugm-3,59.49357,R,ugm-3
12-01-2016,14:00,13.07919,R,ugm-3,27.53044,R,ugm-3,47.58491,R,ugm-3
12-01-2016,15:00,16.78273,R,ugm-3,31.25647,R,ugm-3,56.98963,R,ugm-3
12-01-2016,16:00,13.51294,R,ugm-3,39.89858,R,ugm-3,60.61812,R,ugm-3
12-01-2016,17:00,19.08494,R,ugm-3,39.02217,R,ugm-3,68.28533,R,ugm-3
12-01-2016,18:00,22.38810,R,ugm-3,44.17923,R,ugm-3,78.50717,R,ugm-3
12-01-2016,19:00,15.31466,R,ugm-3,37.39177,R,ugm-3,60.87392,R,ugm-3
12-01-2016,20:00,17.21648,R,ugm-3,30.99971,R,ugm-3,57.39795,R,ugm-3
12-01-2016,21:00,9.37564,R,ugm-3,24.62153,R,ugm-3,38.99731,R,ugm-3
12-01-2016,22:00,5.00479,R,ugm-3,17.67724,R,ugm-3,25.35114,R,ugm-3
12-01-2016,23:00,3.46999,R,ugm-3,9.34830,R,ugm-3,14.66888,R,ugm-3
12-01-2016,24:00,1.63490,R,ugm-3,7.35787,R,ugm-3,9.86468,R,ugm-3
13-01-2016,01:00,1.29137,R,ugm-3,7.70610,R,ugm-3,9.68618,R,ugm-3
13-01-2016,02:00,2.84967,R,ugm-3,7.43134,R,ugm-3,11.80076,R,ugm-3
13-01-2016,03:00,0.63456,R,ugm-3,4.39875,R,ugm-3,5.37173,R,ugm-3
13-01-2016,04:00,1.70319,R,ugm-3,9.30862,R,ugm-3,11.92013,R,ugm-3
13-01-2016,05:00,4.34123,R,ugm-3,11.19817,R,ugm-3,17.85462,R,ugm-3
13-01-2016,06:00,5.14293,R,ugm-3,16.56847,R,ugm-3,24.45418,R,ugm-3
13-01-2016,07:00,11.62203,R,ugm-3,27.04658,R,ugm-3,44.86677,R,ugm-3
13-01-2016,08:00,31.49277,R,ugm-3,54.49095,R,ugm-3,102.77918,R,ugm-3
13-01-2016,09:00,53.73493,R,ugm-3,70.47180,R,ugm-3,152.86421,R,ugm-3
13-01-2016,10:00,61.24929,R,ugm-3,70.10269,R,ugm-3,164.01696,R,ugm-3
13-01-2016,11:00,48.42486,R,ugm-3,75.90234,R,ugm-3,150.15277,R,ugm-3
13-01-2016,12:00,52.29898,R,ugm-3,63.41372,R,ugm-3,143.60437,R,ugm-3
13-01-2016,13:00,52.06511,R,ugm-3,68.93941,R,ugm-3,148.77146,R,ugm-3
13-01-2016,14:00,49.49380,R,ugm-3,69.40319,R,ugm-3,145.29263,R,ugm-3
13-01-2016,15:00,50.09469,R,ugm-3,68.63532,R,ugm-3,145.44610,R,ugm-3
13-01-2016,16:00,31.52613,R,ugm-3,66.15529,R,ugm-3,114.49468,R,ugm-3
13-01-2016,17:00,33.39646,R,ugm-3,74.69603,R,ugm-3,125.90322,R,ugm-3
13-01-2016,18:00,27.25132,R,ugm-3,67.95208,R,ugm-3,109.73686,R,ugm-3
13-01-2016,19:00,9.65130,R,ugm-3,40.35136,R,ugm-3,55.14981,R,ugm-3
13-01-2016,20:00,5.24303,R,ugm-3,31.86512,R,ugm-3,39.90431,R,ugm-3
13-01-2016,21:00,8.48289,R,ugm-3,38.40826,R,ugm-3,51.41517,R,ugm-3
13-01-2016,22:00,5.24303,R,ugm-3,29.40947,R,ugm-3,37.44866,R,ugm-3
13-01-2016,23:00,3.60719,R,ugm-3,18.82091,R,ugm-3,24.35186,R,ugm-3
13-01-2016,24:00,1.60309,R,ugm-3,18.51730,R,ugm-3,20.97534,R,ugm-3
14-01-2016,01:00,0.66814,R,ugm-3,12.90428,R,ugm-3,13.92874,R,ugm-3
14-01-2016,02:00,0.89140,R,ugm-3,13.03943,R,ugm-3,14.40623,R,ugm-3
14-01-2016,03:00,2.57412,R,ugm-3,19.96746,R,ugm-3,23.91438,R,ugm-3
14-01-2016,04:00,2.97512,R,ugm-3,18.37913,R,ugm-3,22.94092,R,ugm-3
14-01-2016,05:00,7.25399,R,ugm-3,29.12642,R,ugm-3,40.24904,R,ugm-3
14-01-2016,06:00,8.15641,R,ugm-3,25.59212,R,ugm-3,38.09843,R,ugm-3
14-01-2016,07:00,14.34021,R,ugm-3,35.05708,R,ugm-3,57.04509,R,ugm-3
14-01-2016,08:00,20.99237,R,ugm-3,40.21940,R,ugm-3,72.40725,R,ugm-3
14-01-2016,09:00,14.87530,R,ugm-3,29.78145,R,ugm-3,52.58993,R,ugm-3
14-01-2016,10:00,7.12021,R,ugm-3,19.55053,R,ugm-3,30.46804,R,ugm-3
14-01-2016,11:00,8.32323,R,ugm-3,16.52878,R,ugm-3,29.29089,R,ugm-3
14-01-2016,12:00,7.42112,R,ugm-3,15.35116,R,ugm-3,26.73006,R,ugm-3
14-01-2016,13:00,12.46863,R,ugm-3,26.91653,R,ugm-3,46.03483,R,ugm-3
14-01-2016,14:00,11.06449,R,ugm-3,25.89525,R,ugm-3,42.86056,R,ugm-3
14-01-2016,15:00,11.29867,R,ugm-3,22.36143,R,ugm-3,39.68581,R,ugm-3
14-01-2016,16:00,11.83345,R,ugm-3,30.50246,R,ugm-3,48.64683,R,ugm-3
14-01-2016,17:00,7.85550,R,ugm-3,25.59260,R,ugm-3,37.63752,R,ugm-3
14-01-2016,18:00,9.19260,R,ugm-3,28.04873,R,ugm-3,42.14385,R,ugm-3
14-01-2016,19:00,6.01698,R,ugm-3,20.62775,R,ugm-3,29.85365,R,ugm-3
14-01-2016,20:00,4.98109,R,ugm-3,16.02006,R,ugm-3,23.65763,R,ugm-3
14-01-2016,21:00,5.81616,R,ugm-3,19.39944,R,ugm-3,28.31743,R,ugm-3
14-01-2016,22:00,4.01132,R,ugm-3,15.25410,R,ugm-3,21.40470,R,ugm-3
14-01-2016,23:00,1.37047,R,ugm-3,8.34472,R,ugm-3,10.44608,R,ugm-3
14-01-2016,24:00,1.53761,R,ugm-3,7.21825,R,ugm-3,9.57589,R,ugm-3
15-01-2016,01:00,2.00774,R,ugm-3,6.63510,R,ugm-3,9.71359,R,ugm-3
15-01-2016,02:00,1.56120,R,ugm-3,9.57716,R,ugm-3,11.97098,R,ugm-3
15-01-2016,03:00,0.76990,R,ugm-3,7.07912,R,ugm-3,8.25961,R,ugm-3
15-01-2016,04:00,2.34212,R,ugm-3,8.36193,R,ugm-3,11.95313,R,ugm-3
15-01-2016,05:00,3.34588,R,ugm-3,10.31172,R,ugm-3,15.44200,R,ugm-3
15-01-2016,06:00,9.33511,R,ugm-3,17.85367,R,ugm-3,32.16729,R,ugm-3
15-01-2016,07:00,8.36502,R,ugm-3,37.24546,R,ugm-3,50.07164,R,ugm-3
15-01-2016,08:00,19.87448,R,ugm-3,41.86271,R,ugm-3,72.33649,R,ugm-3
15-01-2016,09:00,21.51405,R,ugm-3,39.91388,R,ugm-3,72.90163,R,ugm-3
15-01-2016,10:00,23.72240,R,ugm-3,42.47854,R,ugm-3,78.85238,R,ugm-3
15-01-2016,11:00,22.95282,R,ugm-3,27.85700,R,ugm-3,63.05082,R,ugm-3
15-01-2016,12:00,21.31324,R,ugm-3,28.62726,R,ugm-3,61.30710,R,ugm-3
15-01-2016,13:00,24.29086,R,ugm-3,33.75802,R,ugm-3,71.00348,R,ugm-3
15-01-2016,14:00,18.10144,R,ugm-3,34.88496,R,ugm-3,62.64011,R,ugm-3
15-01-2016,15:00,17.39859,R,ugm-3,30.01238,R,ugm-3,56.68985,R,ugm-3